Weather History for Northway, AK

Change the Weather History Date:

Friday, November 2, 2012

  Actual Average Record
Temperature  
Mean Temperature 4 °F -  
Max Temperature 7 °F 14 °F 34 °F (1970)
Min Temperature 0 °F -2 °F -41 °F (1975)
Degree Days  
Heating Degree Days 62    
Moisture  
Dew Point 0 °F    
Average Humidity 83    
Maximum Humidity 87    
Minimum Humidity 79    
Precipitation  
Precipitation 0.00 in - - ()
Snow  
Snow 0.00 in - - ()
Snow Depth 6.00 in    
Sea Level Pressure  
Sea Level Pressure 29.86 in    
Wind  
Wind Speed 0 mph (ESE)    
Max Wind Speed 5 mph    
Max Gust Speed -    
Visibility 6 miles    
Events Snow    
Averages and records for this station are not official NWS values.
T = Trace of Precipitation, MM = Missing Value Source: NWS Daily Summary

Daily Weather History Graph

Daily Weather History Graph

Search for Another Location

Airport:

Trip Planner

Search our weather history database for the weather conditions in past years. The results will help you decide how hot, cold, wet, or windy it might be!

Date:

Astronomy

Nov. 02, 2012 Rise Set
Actual Time 9:09 AM AKDT 5:12 PM AKDT
Civil Twilight 8:18 AM AKDT 6:03 PM AKDT
Nautical Twilight 7:23 AM AKDT 6:58 PM AKDT
Astronomical Twilight 6:30 AM AKDT 7:51 PM AKDT
Moon 7:18 PM AKDT 1:26 PM AKDT
Length of Visible Light 9h 45m
Length of Day
8h 02m
Waning Gibbous, 86% of the Moon is Illuminated
Nov 2
Waning Gibbous
Nov 6
Last Quarter
Nov 13
New
Nov 20
First Quarter
Nov 28
Full

Hourly Weather History & Observations

Time (AKDT) Temp. Windchill Dew Point Humidity Pressure Visibility Wind Dir Wind Speed Gust Speed Precip Events Conditions
12:53 AM -0.0 °F - -4.0 °F 83% 30.16 in 9.0 mi Calm Calm - 0.00 in   Mostly Cloudy
1:53 AM -0.0 °F - -4.0 °F 83% 30.14 in 10.0 mi Calm Calm - N/A   Mostly Cloudy
2:53 AM 1.0 °F - -2.9 °F 83% 30.11 in 10.0 mi Calm Calm - N/A   Overcast
3:53 AM 1.0 °F - -4.0 °F 79% 30.09 in 10.0 mi Calm Calm - N/A   Overcast
4:53 AM 1.0 °F - -4.0 °F 79% 30.06 in 10.0 mi Calm Calm - N/A   Overcast
5:53 AM 1.0 °F - -2.9 °F 83% 30.04 in 10.0 mi Calm Calm - 0.00 in Snow Light Snow
6:53 AM 1.0 °F - -2.9 °F 83% 30.01 in 9.0 mi Calm Calm - 0.00 in Snow Light Snow
7:53 AM 1.9 °F - -2.0 °F 83% 29.98 in 7.0 mi Calm Calm - 0.00 in Snow Light Snow
8:53 AM 1.9 °F - -2.0 °F 83% 29.96 in 9.0 mi Calm Calm - 0.00 in Snow Light Snow
9:53 AM 1.9 °F - -2.0 °F 83% 29.93 in 3.0 mi Calm Calm - 0.00 in Snow Light Snow
10:53 AM 3.0 °F - -0.9 °F 84% 29.90 in 3.0 mi Calm Calm - 0.00 in Snow Light Snow
11:40 AM 3.2 °F - -0.4 °F 85% 29.70 in 2.5 mi Calm Calm - 0.00 in Snow Light Snow
11:53 AM 3.9 °F - -0.0 °F 84% 29.88 in 2.5 mi Calm Calm - 0.00 in Snow Light Snow
12:53 PM 5.0 °F - -0.0 °F 80% 29.85 in 2.5 mi Calm Calm - 0.00 in Snow Light Snow
1:14 PM 5.0 °F - 1.4 °F 85% 29.65 in 3.0 mi Calm Calm - 0.00 in Snow Light Snow
1:53 PM 5.0 °F - 1.0 °F 84% 29.81 in 4.0 mi Calm Calm - 0.00 in Snow Light Snow
2:53 PM 6.1 °F - 1.9 °F 83% 29.78 in 4.0 mi Calm Calm - 0.00 in Snow Light Snow
3:53 PM 7.0 °F - 1.9 °F 80% 29.76 in 4.0 mi Calm Calm - 0.00 in Snow Light Snow
4:53 PM 7.0 °F - 1.9 °F 80% 29.74 in 6.0 mi Calm Calm - 0.00 in Snow Light Snow
5:53 PM 7.0 °F - 3.0 °F 84% 29.73 in 2.0 mi Calm Calm - 0.00 in Snow Light Snow
6:53 PM 7.0 °F - 3.0 °F 84% 29.73 in 2.0 mi Calm Calm - 0.00 in Snow Light Snow
7:26 PM 6.8 °F - 3.2 °F 85% 29.55 in 5.0 mi Calm Calm - 0.00 in Snow Light Snow
7:53 PM 6.1 °F - 3.0 °F 87% 29.73 in 5.0 mi Calm Calm - 0.00 in Snow Light Snow
8:53 PM 6.1 °F - 3.0 °F 87% 29.73 in 8.0 mi Calm Calm - 0.00 in Snow Light Snow
9:53 PM 6.1 °F - 3.0 °F 87% 29.73 in 8.0 mi Calm Calm - 0.00 in Snow Light Snow
10:53 PM 7.0 °F - 3.0 °F 84% 29.71 in 8.0 mi Calm Calm - 0.00 in Snow Light Snow
11:53 PM 7.0 °F -1.7 °F 3.0 °F 84% 29.72 in 8.0 mi ESE 4.6 mph - 0.00 in Snow Light Snow